This demonstration page uses our WeatherBlox Daily Observations layout. Learn more.

Left ArrowRight Arrow

44.8408, -93.29828

Hourly Observations for September 9, 2020

Temp ( °F °C ) Dew Point ( °F °C ) Humidity (%) Winds ( mph kmh ) Pressure ( in mb ) Visibility ( mi km ) Precip ( " mm )
12:53 am 00:53 Cloudy 47 8.3 39 3.9 74 74 N 5 7 30.38 1029 10 16 0.00 0.00
1:53 am 01:53 Cloudy 48 8.9 39 3.9 71 71 N 5 7 30.38 1029 10 16 0.00 0.00
2:53 am 02:53 Cloudy 48 8.9 40 4.4 74 74 N 5 7 30.38 1029 10 16 0.00 0.00
3:53 am 03:53 Cloudy 48 8.9 40 4.4 74 74 N 6 9 30.39 1029 10 16 0.00 0.00
4:53 am 04:53 Cloudy 47 8.3 41 5 80 80 NNE 5 7 30.38 1029 10 16 0.00 0.00
5:53 am 05:53 Cloudy 47 8.3 41 5 80 80 N 5 7 30.39 1029 10 16 0.00 0.00
6:53 am 06:53 Cloudy 47 8.3 42 5.6 83 83 NNE 5 7 30.40 1029 10 16 0.00 0.00
7:53 am 07:53 Cloudy 47 8.3 42 5.6 83 83 NNE 5 7 30.41 1030 10 16 0.00 0.00
8:53 am 08:53 Cloudy 47 8.3 42 5.6 83 83 N 6 9 30.42 1030 10 16 0.00 0.00
9:53 am 09:53 Cloudy 48 8.9 42 5.6 80 80 NNE 7 11 30.44 1031 10 16 0.00 0.00
10:53 am 10:53 Cloudy 48 8.9 42 5.6 80 80 Calm 30.47 1032 10 16 0.00 0.00
11:53 am 11:53 Cloudy 49 9.4 41 5 74 74 NE 3 6 30.45 1031 10 16 0.00 0.00
12:53 pm 12:53 Cloudy with Light Rain 48 8.9 38 3.3 68 68 ENE 8 13 30.47 1032 9 14 0.00 0.00
1:53 pm 13:53 Cloudy with Light Rain 46 7.8 39 3.9 77 77 ENE 6 9 30.46 1032 7 11 0.02 0.51
2:53 pm 14:53 Cloudy with Light Rain 46 7.8 41 5 83 83 NNE 7 11 30.46 1032 8 13 0.08 2.03
3:53 pm 15:53 Cloudy with Light Rain 46 7.8 41 5 83 83 N 7 11 30.46 1032 9 14 0.01 0.25
4:53 pm 16:53 Cloudy with Light Rain 45 7.2 41 5 86 86 NNE 6 9 30.46 1032 10 16 0.02 0.51
5:53 pm 17:53 Cloudy 45 7.2 42 5.6 90 90 NNE 6 9 30.47 1032 10 16 0.01 0.25
6:53 pm 18:53 Mostly Cloudy 46 7.8 42 5.6 86 86 VRB 3 6 30.46 1032 10 16 0.00 0.00
7:53 pm 19:53 Mostly Cloudy 45 7.2 42 5.6 90 90 Calm 30.47 1032 10 16 0.00 0.00
8:53 pm 20:53 Mostly Clear 45 7.2 42 5.6 90 90 Calm 30.48 1032 10 16 0.00 0.00
9:53 pm 21:53 Clear 43 6.1 41 5 93 93 VRB 5 7 30.48 1032 10 16 0.00 0.00
10:53 pm 22:53 Clear 42 5.6 41 5 96 96 NNE 3 6 30.48 1032 10 16 0.00 0.00
11:53 pm 23:53 Partly Cloudy 42 5.6 41 5 96 96 N 3 6 30.48 1032 10 16 0.00 0.00

Powered by AerisWeather